Kalispell, MT

5:30 AM MDT on April 25, 2017 (GMT -0600)
Glacier Park International

Weather History for KGPI - October, 2012

Change the Weather History Date:

Sunday, October 21, 2012

  Actual Average Record
Temperature  
Mean Temperature 35 °F 40 °F  
Max Temperature 45 °F 52 °F 75 °F (2003)
Min Temperature 24 °F 28 °F 12 °F (1981)
Degree Days  
Heating Degree Days 30 25  
Month to date heating degree days 430 443  
Since 1 July heating degree days 816 943  
Cooling Degree Days 0 0  
Month to date cooling degree days 0 0  
Year to date cooling degree days 192 147  
Moisture  
Dew Point 29 °F    
Average Humidity 79    
Maximum Humidity 100    
Minimum Humidity 57    
Precipitation  
Precipitation 0.01 in 0.03 in 0.48 in (1990)
Month to date precipitation 1.17 0.62  
Year to date precipitation 16.12 13.61  
Snow  
Snow 0.00 in - - ()
Month to date snowfall 0.0  
Year to date snowfall 25.1  
Since 1 July snowfall 0.0  
Snow Depth 0.00 in    
Sea Level Pressure  
Sea Level Pressure 29.93 in    
Wind  
Wind Speed 2 mph (North)    
Max Wind Speed 15 mph    
Max Gust Speed 20 mph    
Visibility 10 miles    
Events Snow    
T = Trace of Precipitation, MM = Missing Value Source: NWS Daily Summary

Daily Weather History Graph

Daily Weather History Graph

Search for Another Location

Airport or City:

Trip Planner

Search our weather history database for the weather conditions in past years. The results will help you decide how hot, cold, wet, or windy it might be!

Date:

Astronomy

Oct. 21, 2012 Rise Set
Actual Time 8:06 AM MDT 6:35 PM MDT
Civil Twilight 7:34 AM MDT 7:07 PM MDT
Nautical Twilight 6:58 AM MDT 7:43 PM MDT
Astronomical Twilight 6:22 AM MDT 8:19 PM MDT
Moon 2:39 PM MDT (10/21) No Moon Set
Length of Visible Light 11h 32m
Length of Day
10h 29m
Waxing Crescent, 46% of the Moon is Illuminated
Oct 21
Waxing Crescent
Oct 21
First Quarter
Oct 29
Full
Nov 6
Last Quarter
Nov 13
New

Hourly Weather History & Observations

Time (MDT) Temp. Windchill Dew Point Humidity Pressure Visibility Wind Dir Wind Speed Gust Speed Precip Events Conditions
12:55 AM 30.9 °F - 28.0 °F 89% 29.88 in 10.0 mi Calm Calm - N/A   Overcast
1:55 AM 28.0 °F - 27.0 °F 96% 29.90 in 10.0 mi Calm Calm - N/A   Scattered Clouds
2:55 AM 30.9 °F - 28.9 °F 92% 29.90 in 10.0 mi Calm Calm - N/A   Overcast
3:55 AM 30.9 °F - 28.9 °F 92% 29.89 in 10.0 mi Calm Calm - N/A   Overcast
4:55 AM 30.0 °F 26.5 °F 28.0 °F 92% 29.89 in 10.0 mi East 3.5 mph - N/A   Mostly Cloudy
5:55 AM 30.9 °F - 28.9 °F 92% 29.91 in 10.0 mi Calm Calm - N/A   Overcast
6:55 AM 30.9 °F - 30.0 °F 96% 29.93 in 10.0 mi Calm Calm - N/A   Overcast
7:55 AM 30.9 °F - 28.9 °F 92% 29.94 in 10.0 mi Calm Calm - N/A   Overcast
8:55 AM 32.0 °F 28.7 °F 30.0 °F 92% 29.95 in 10.0 mi WNW 3.5 mph - N/A   Overcast
9:55 AM 34.0 °F - 30.0 °F 85% 29.96 in 10.0 mi Calm Calm - N/A   Overcast
10:55 AM 35.1 °F - 30.9 °F 85% 29.97 in 9.0 mi Calm Calm - 0.00 in Snow Light Snow
11:55 AM 41.0 °F 38.0 °F 30.0 °F 65% 29.96 in 10.0 mi SSE 4.6 mph - 0.00 in   Scattered Clouds
12:55 PM 43.0 °F 38.8 °F 28.0 °F 56% 29.95 in 10.0 mi South 6.9 mph - N/A   Overcast
1:55 PM 41.0 °F 37.1 °F 28.0 °F 60% 29.94 in 10.0 mi NW 5.8 mph - 0.00 in   Overcast
2:55 PM 43.0 °F 39.5 °F 30.0 °F 60% 29.93 in 10.0 mi North 5.8 mph - N/A   Overcast
3:55 PM 42.1 °F 39.2 °F 28.9 °F 60% 29.93 in 10.0 mi NE 4.6 mph - N/A   Overcast
4:55 PM 39.9 °F 35.8 °F 32.0 °F 73% 29.94 in 10.0 mi NNE 5.8 mph - 0.01 in   Mostly Cloudy
5:55 PM 41.0 °F 39.0 °F 32.0 °F 70% 29.94 in 10.0 mi NW 3.5 mph - N/A   Overcast
6:55 PM 36.0 °F 32.1 °F 30.0 °F 79% 29.94 in 10.0 mi NNW 4.6 mph - N/A   Clear
7:55 PM 33.1 °F - 30.0 °F 89% 29.94 in 10.0 mi Calm Calm - N/A   Clear
8:55 PM 30.9 °F - 28.0 °F 89% 29.94 in 10.0 mi Calm Calm - N/A   Clear
9:55 PM 28.9 °F - 27.0 °F 92% 29.94 in 10.0 mi Calm Calm - N/A   Mostly Cloudy
10:55 PM 26.1 °F - 25.0 °F 96% 29.94 in 10.0 mi Calm Calm - N/A   Clear
11:55 PM 26.1 °F - 24.1 °F 92% 29.93 in 10.0 mi Calm Calm - N/A   Clear